"Pseudo-MPEC" for P10R0jG

Created 2019 Sep 11 19:07:15 UT using Find_Orb

Click here for an explanation of pseudo-MPECs

 
 Astrometry: 
     P10R0jG  C2019 08 28\l:a)tUTKQt[ST+sPOHxAstrometryPFDredacted;N2:34[$HqJF51
     P10R0jG  C2019 08 28cYT]4click.bf\hereCsj(forltexplanationXorbop7'0JpF(rF51
     P10R0jG  C2019 08 28=R[P`s?o[_+YXPa%$?tw\CGs$XwtX%mu1(rUEAk*JbVeA5_ofA83F51

Station data:
(F51) Pan-STARRS 1, Haleakala  (N20.707235 W156.255910)  US/Hawaii.
   Observers N. Primak, A. Schultz, S. Watters, J. Thiel, T. Goggia. Measurer
   PS1 Science Consortium. 1.8-m Ritchey-Chrétien + CCD.

Orbital elements:  P10R0jG
   Perihelion 2019 Dec 20.340877 +/- 121 TT =  8:10:51 (JD 2458837.840877)
Epoch 2019 Aug 28.0 TT = JDT 2458723.5   Earth MOID: 0.0151   AutoNEOCP
M 251.09854147 +/- 100              (J2000 ecliptic)
n   0.95242805 +/- 0.514            Peri.  288.55111 +/- 80
a   1.02309178 +/- 0.368            Node   154.88117 +/- 19
e   0.0085873 +/- 0.269             Incl.    0.86575 +/- 27
P   1.03/377.97d           H 29.7   G  0.15   U 12.3  SR
q 1.01430618 +/- 0.635    Q 1.03187738 +/- 24.8
From 3 observations 2019 Aug. 28 (30.9 min); mean residual 0".15
Residuals in arcseconds: 
190828 F51  .04-  .14-    190828 F51  .09+  .29+    190828 F51  .04-  .14-    

Ephemerides (geocentric):
Date (UTC) HH   RA              Dec         delta   r     elong  mag " sig PA
---- -- -- --  -------------   -----------  ------ ------ -----  --- ---- ---
2019 09 11 19  20 47 00.934   -26 50 23.01  .02285 1.0237 137.7 23.2  17d 169
2019 09 11 20  20 47 07.347   -26 51 16.95  .02286 1.0237 137.7 23.2  17d 169
2019 09 11 21  20 47 13.764   -26 52 10.74  .02288 1.0237 137.7 23.2  17d 169
2019 09 11 22  20 47 20.184   -26 53 04.39  .02289 1.0237 137.7 23.2  17d 169
2019 09 11 23  20 47 26.608   -26 53 57.90  .02290 1.0237 137.6 23.2  17d 169
2019 09 12 00  20 47 33.036   -26 54 51.26  .02292 1.0237 137.6 23.2  17d 168
2019 09 12 01  20 47 39.467   -26 55 44.48  .02293 1.0237 137.6 23.2  17d 168
2019 09 12 02  20 47 45.902   -26 56 37.55  .02295 1.0237 137.6 23.2  17d 168
2019 09 12 03  20 47 52.340   -26 57 30.48  .02296 1.0237 137.5 23.2  17d 168
2019 09 12 04  20 47 58.781   -26 58 23.27  .02297 1.0237 137.5 23.2  17d 168
2019 09 12 05  20 48 05.226   -26 59 15.91  .02299 1.0237 137.5 23.2  17d 168
2019 09 12 06  20 48 11.675   -27 00 08.41  .02300 1.0236 137.5 23.2  17d 168
2019 09 12 07  20 48 18.127   -27 01 00.77  .02302 1.0236 137.4 23.2  17d 168
2019 09 12 08  20 48 24.583   -27 01 52.98  .02303 1.0236 137.4 23.2  17d 168
2019 09 12 09  20 48 31.041   -27 02 45.05  .02305 1.0236 137.4 23.2  17d 168
2019 09 12 10  20 48 37.504   -27 03 36.97  .02306 1.0236 137.4 23.2  17d 168
2019 09 12 11  20 48 43.969   -27 04 28.76  .02307 1.0236 137.3 23.2  17d 167
2019 09 12 12  20 48 50.438   -27 05 20.40  .02309 1.0236 137.3 23.2  17d 167
2019 09 12 13  20 48 56.910   -27 06 11.90  .02310 1.0236 137.3 23.2  17d 167
2019 09 12 14  20 49 03.386   -27 07 03.25  .02312 1.0236 137.3 23.2  18d 167
2019 09 12 15  20 49 09.865   -27 07 54.46  .02313 1.0236 137.2 23.2  18d 167
2019 09 12 16  20 49 16.347   -27 08 45.53  .02314 1.0236 137.2 23.2  18d 167
2019 09 12 17  20 49 22.832   -27 09 36.46  .02316 1.0236 137.2 23.2  18d 167
2019 09 12 18  20 49 29.321   -27 10 27.25  .02317 1.0236 137.2 23.2  18d 167
2019 09 12 19  20 49 35.813   -27 11 17.89  .02319 1.0236 137.2 23.2  18d 167
2019 09 12 20  20 49 42.308   -27 12 08.39  .02320 1.0235 137.1 23.2  18d 167
2019 09 12 21  20 49 48.806   -27 12 58.76  .02322 1.0235 137.1 23.2  18d 167
2019 09 12 22  20 49 55.307   -27 13 48.97  .02323 1.0235 137.1 23.2  18d 167
2019 09 12 23  20 50 01.812   -27 14 39.05  .02324 1.0235 137.1 23.2  18d 167
2019 09 13 00  20 50 08.319   -27 15 28.99  .02326 1.0235 137.0 23.2  19d 167
2019 09 13 01  20 50 14.830   -27 16 18.78  .02327 1.0235 137.0 23.2  19d 167
2019 09 13 02  20 50 21.344   -27 17 08.44  .02329 1.0235 137.0 23.2  19d 167
2019 09 13 03  20 50 27.861   -27 17 57.95  .02330 1.0235 137.0 23.3  19d 167
2019 09 13 04  20 50 34.381   -27 18 47.32  .02332 1.0235 136.9 23.3  19d 168
2019 09 13 05  20 50 40.904   -27 19 36.55  .02333 1.0235 136.9 23.3  19d 168
2019 09 13 06  20 50 47.430   -27 20 25.64  .02334 1.0235 136.9 23.3  20d 168
2019 09 13 07  20 50 53.959   -27 21 14.59  .02336 1.0235 136.9 23.3  20d 168
2019 09 13 08  20 51 00.491   -27 22 03.40  .02337 1.0235 136.8 23.3  20d 169
2019 09 13 09  20 51 07.026   -27 22 52.07  .02339 1.0235 136.8 23.3  20d 169
2019 09 13 10  20 51 13.564   -27 23 40.60  .02340 1.0235 136.8 23.3  20d 169
2019 09 13 11  20 51 20.105   -27 24 28.99  .02342 1.0234 136.8 23.3  21d 170
2019 09 13 12  20 51 26.649   -27 25 17.24  .02343 1.0234 136.8 23.3  21d 170
2019 09 13 13  20 51 33.196   -27 26 05.35  .02344 1.0234 136.7 23.3  21d 170
2019 09 13 14  20 51 39.745   -27 26 53.32  .02346 1.0234 136.7 23.3  21d 171
2019 09 13 15  20 51 46.298   -27 27 41.15  .02347 1.0234 136.7 23.3  22d 171
2019 09 13 16  20 51 52.853   -27 28 28.84  .02349 1.0234 136.7 23.3  22d 171
2019 09 13 17  20 51 59.412   -27 29 16.39  .02350 1.0234 136.6 23.3  22d 172
2019 09 13 18  20 52 05.973   -27 30 03.80  .02352 1.0234 136.6 23.3  22d 172